Location: Newark
(11.2914°S, 14.4718°E)
Time: 05:07:28
(UTC+00:00)

Tiros 1 despin weight - Pass Details

Date: 21 September 2019
Orbit: 594 x 643 km, 48.2° (Epoch: 17 October)

Event Time Altitude Azimuth Distance (km) Brightness Sun altitude
Rises 21:15:14 0° 293° (WNW) 2,830 - -63.0°
Reaches altitude 10° 21:17:55 10° 277° (W) 1,939 - -63.6°
Maximum altitude 21:21:23 22° 226° (SW) 1,338 - -64.4°
Drops below altitude 10° 21:24:54 10° 175° (S) 1,972 - -65.1°
Sets 21:27:40 0° 159° (SSE) 2,891 - -65.8°
